Regional Weather Roundup
Issued by NWS

Home | Current Version | Previous Version | Text Only | Print | Product List | Glossary On
Versions: 1 2 3 4 5 6 7 8 9 10 11 12 13 14 15 16 17 18 19 20 21 22 23 24 25 26 27 28 29 30 31 32 33 34 35 36 37 38 39 40 41 42 43 44 45 46 47 48 49 50
000
ASUS43 KLMK 032010
RWRKY
KENTUCKY REGIONAL WEATHER ROUNDUP
NATIONAL WEATHER SERVICE LOUISVILLE KY
300 PM EST TUE MAR 03 2015

NOTE "FAIR" INDICATES FEW OR NO CLOUDS BELOW 12,000 FEET
WITH NO SIGNIFICANT WEATHER AND/OR OBSTRUCTIONS TO VISIBILITY.

KYZ001>023-026-027-061>063-070>075-032100-
WESTERN AND SOUTH CENTRAL KENTUCKY

CITY           SKY/WX    TMP DP  RH WIND       PRES   REMARKS
PADUCAH        FOG       49  48  97 SW8       29.89F VSB 1/4
HENDERSON      CLOUDY    48  46  93 S13       29.84F VSB 1
OWENSBORO      CLOUDY    53  52  97 SW16      29.85F
HOPKINSVILLE   CLOUDY    62  57  84 SW15G23   29.92F
BOWLING GREEN  CLOUDY    63  56  78 SW12      29.93F
GLASGOW        CLOUDY    62  55  79 SW12G22   29.93F
$$

KYZ024-025-028>034-038-045-046-053-032100-
NORTH CENTRAL KENTUCKY

CITY           SKY/WX    TMP DP  RH WIND       PRES   REMARKS
LOUISVILLE/SDF CLOUDY    58  53  84 SW15G24   29.82F
LOUISVILLE/LOU CLOUDY    57  53  86 SW14G23   29.83F
FORT KNOX      CLOUDY    56  53  88 S18G33    29.83F
$$

KYZ035>037-039>044-047>052-055>060-089>105-032100-
NORTHEAST KENTUCKY

CITY           SKY/WX    TMP DP  RH WIND       PRES   REMARKS
LEXINGTON      CLOUDY    56  53  90 S21G33    29.85F
COVINGTON      HVY RAIN  44  42  93 SW13      29.78F VSB 1/4
FRANKFORT      CLOUDY    55  51  86 SW17G26   29.83F
$$

KYZ054-064>069-076>088-106>120-032100-
SOUTHEAST KENTUCKY

CITY           SKY/WX    TMP DP  RH WIND       PRES   REMARKS
JACKSON        CLOUDY    61  52  72 S9        29.93F
LONDON         CLOUDY    59  49  69 S10       29.96F
SOMERSET       CLOUDY    59  52  77 SW8       29.96F
MIDDLESBORO    CLOUDY    42  42 100 CALM      30.05F FOG
MONTICELLO     CLOUDY    62  57  83 S14       29.99F
$$




USA.gov is the U.S. government's official web portal to all federal, state and local government web resources and services.